GLO2502 SBSP-SBIL

Flight info

Callsign GLO2502
Flight time 1h 38m
Altitude 35000
Route VUMEV UZ14 DALOX
Aircraft B738/M-SDE2E3FGHIRWXY/LB1

Departure

Time 2026-04-20 23:08
Airport Congonhas–Deputado Freitas Nobre Airport (SBSP)

Arrival

Time 2026-04-21 00:47
Airport Bahia - Jorge Amado Airport (SBIL)
Time Latitude Longitude Altitude Speed Heading
2026-04-20 22:53 -23.62657 -46.65863 2600 ft 0 kts 238°
2026-04-20 23:01 -23.62656 -46.65862 2600 ft 2 kts 238°
2026-04-20 23:01 -23.62648 -46.65848 2600 ft 2 kts 241°
2026-04-20 23:01 -23.62641 -46.65832 2600 ft 2 kts 261°
2026-04-20 23:01 -23.62646 -46.65817 2600 ft 2 kts 328°
2026-04-20 23:02 -23.62650 -46.65814 2600 ft 0 kts 328°
2026-04-20 23:04 -23.62649 -46.65815 2600 ft 2 kts 331°
2026-04-20 23:04 -23.62619 -46.65825 2600 ft 5 kts 347°
2026-04-20 23:04 -23.62579 -46.65836 2600 ft 8 kts 345°
2026-04-20 23:04 -23.62525 -46.65858 2600 ft 8 kts 336°
2026-04-20 23:05 -23.62475 -46.65888 2600 ft 8 kts 328°
2026-04-20 23:05 -23.62428 -46.65920 2600 ft 8 kts 327°
2026-04-20 23:05 -23.62383 -46.65952 2600 ft 8 kts 327°
2026-04-20 23:05 -23.62339 -46.65982 2599 ft 7 kts 328°
2026-04-20 23:06 -23.62296 -46.66011 2599 ft 7 kts 327°
2026-04-20 23:06 -23.62255 -46.66039 2599 ft 7 kts 332°
2026-04-20 23:06 -23.62212 -46.66063 2590 ft 7 kts 332°
2026-04-20 23:06 -23.62172 -46.66089 2598 ft 7 kts 328°
2026-04-20 23:07 -23.62133 -46.66116 2593 ft 7 kts 326°
2026-04-20 23:07 -23.62093 -46.66138 2597 ft 6 kts 346°
2026-04-20 23:07 -23.62049 -46.66126 2590 ft 8 kts 35°
2026-04-20 23:07 -23.62047 -46.66079 2588 ft 8 kts 141°
2026-04-20 23:08 -23.62059 -46.66069 2595 ft 9 kts 144°
2026-04-20 23:08 -23.62351 -46.65865 2600 ft 89 kts 147°
2026-04-20 23:08 -23.63081 -46.65360 2616 ft 156 kts 147°
2026-04-20 23:08 -23.64017 -46.64703 3493 ft 157 kts 148°
2026-04-20 23:09 -23.64875 -46.63878 4169 ft 178 kts 122°
2026-04-20 23:09 -23.65473 -46.62607 4680 ft 205 kts 120°
2026-04-20 23:09 -23.66163 -46.61143 4906 ft 230 kts 120°
2026-04-20 23:09 -23.66948 -46.59514 5065 ft 255 kts 120°
2026-04-20 23:10 -23.67818 -46.57741 5424 ft 273 kts 121°
2026-04-20 23:10 -23.68736 -46.55899 6158 ft 278 kts 121°
2026-04-20 23:10 -23.69670 -46.54044 6945 ft 281 kts 121°
2026-04-20 23:10 -23.70620 -46.52167 7697 ft 283 kts 121°
2026-04-20 23:11 -23.71549 -46.50289 8434 ft 288 kts 116°
2026-04-20 23:11 -23.71935 -46.48131 9158 ft 296 kts 89°
2026-04-20 23:11 -23.71692 -46.45859 9961 ft 300 kts 83°
2026-04-20 23:11 -23.71362 -46.43610 10493 ft 310 kts 83°
2026-04-20 23:12 -23.70994 -46.41198 10659 ft 334 kts 82°
2026-04-20 23:12 -23.70604 -46.38615 10815 ft 355 kts 83°
2026-04-20 23:12 -23.70200 -46.35891 11113 ft 369 kts 83°
2026-04-20 23:12 -23.69793 -46.33099 11651 ft 374 kts 83°
2026-04-20 23:13 -23.69387 -46.30293 12376 ft 374 kts 84°
2026-04-20 23:13 -23.68983 -46.27471 12993 ft 378 kts 84°
2026-04-20 23:13 -23.68577 -46.24627 13592 ft 381 kts 84°
2026-04-20 23:13 -23.68168 -46.21760 14156 ft 384 kts 84°
2026-04-20 23:14 -23.67754 -46.18869 14671 ft 387 kts 84°
2026-04-20 23:14 -23.67268 -46.15961 15161 ft 393 kts 76°
2026-04-20 23:14 -23.66049 -46.13304 15650 ft 403 kts 54°
2026-04-20 23:14 -23.64021 -46.11179 16178 ft 409 kts 34°
2026-04-20 23:15 -23.61511 -46.09705 16715 ft 412 kts 27°
2026-04-20 23:15 -23.59755 -46.08784 17052 ft 415 kts 26°
2026-04-20 23:15 -23.56870 -46.07255 17576 ft 418 kts 27°
2026-04-20 23:15 -23.54260 -46.05831 18082 ft 421 kts 27°
2026-04-20 23:16 -23.51647 -46.04379 18558 ft 423 kts 28°
2026-04-20 23:16 -23.49013 -46.02912 18963 ft 427 kts 27°
2026-04-20 23:16 -23.46358 -46.01436 19371 ft 430 kts 27°
2026-04-20 23:16 -23.43776 -46.00083 19754 ft 433 kts 20°
2026-04-20 23:17 -23.40827 -45.99416 20129 ft 435 kts
2026-04-20 23:17 -23.37798 -45.99331 20576 ft 436 kts 360°
2026-04-20 23:17 -23.34754 -45.99293 20973 ft 439 kts 360°
2026-04-20 23:17 -23.31685 -45.99233 21335 ft 443 kts
2026-04-20 23:18 -23.28628 -45.99139 21713 ft 445 kts
2026-04-20 23:18 -23.25522 -45.99028 22091 ft 448 kts
2026-04-20 23:18 -23.22389 -45.98913 22473 ft 451 kts
2026-04-20 23:18 -23.19248 -45.98801 22846 ft 453 kts
2026-04-20 23:19 -23.16080 -45.98690 23196 ft 456 kts
2026-04-20 23:19 -23.12901 -45.98579 23551 ft 459 kts
2026-04-20 23:19 -23.09700 -45.98467 23882 ft 461 kts
2026-04-20 23:19 -23.06479 -45.98355 24194 ft 462 kts
2026-04-20 23:20 -23.03258 -45.98242 24525 ft 463 kts
2026-04-20 23:20 -23.00034 -45.98130 24844 ft 465 kts
2026-04-20 23:20 -22.96792 -45.98016 25166 ft 466 kts
2026-04-20 23:20 -22.93546 -45.97903 25466 ft 467 kts
2026-04-20 23:21 -22.90297 -45.97677 25733 ft 471 kts
2026-04-20 23:21 -22.87163 -45.96610 26002 ft 475 kts 26°
2026-04-20 23:21 -22.84359 -45.94710 26322 ft 476 kts 34°
2026-04-20 23:21 -22.81644 -45.92637 26581 ft 478 kts 35°
2026-04-20 23:22 -22.78931 -45.90526 26814 ft 481 kts 35°
2026-04-20 23:22 -22.76204 -45.88408 27062 ft 483 kts 35°
2026-04-20 23:22 -22.73494 -45.86323 27345 ft 484 kts 34°
2026-04-20 23:22 -22.70735 -45.84221 27606 ft 486 kts 34°
2026-04-20 23:23 -22.67958 -45.82122 27857 ft 488 kts 34°
2026-04-20 23:23 -22.65160 -45.80017 28112 ft 490 kts 34°
2026-04-20 23:23 -22.62349 -45.77908 28347 ft 491 kts 34°
2026-04-20 23:23 -22.59540 -45.75802 28583 ft 493 kts 34°
2026-04-20 23:24 -22.56714 -45.73683 28803 ft 495 kts 34°
2026-04-20 23:24 -22.53883 -45.71561 29013 ft 496 kts 34°
2026-04-20 23:24 -22.51036 -45.69427 29231 ft 498 kts 34°
2026-04-20 23:24 -22.48187 -45.67293 29444 ft 499 kts 34°
2026-04-20 23:25 -22.45325 -45.65150 29725 ft 499 kts 33°
2026-04-20 23:25 -22.42470 -45.63011 30061 ft 498 kts 33°
2026-04-20 23:25 -22.39621 -45.60880 30391 ft 496 kts 33°
2026-04-20 23:25 -22.36828 -45.58790 30664 ft 496 kts 33°
2026-04-20 23:26 -22.33982 -45.56663 30887 ft 497 kts 33°
2026-04-20 23:26 -22.31137 -45.54537 31104 ft 497 kts 34°
2026-04-20 23:26 -22.28295 -45.52415 31387 ft 496 kts 34°
2026-04-20 23:26 -22.25448 -45.50291 31657 ft 496 kts 34°
2026-04-20 23:27 -22.22609 -45.48172 31908 ft 496 kts 34°
2026-04-20 23:27 -22.19772 -45.46057 32157 ft 496 kts 34°
2026-04-20 23:27 -22.16924 -45.43935 32429 ft 496 kts 34°
2026-04-20 23:27 -22.14090 -45.41823 32689 ft 496 kts 34°
2026-04-20 23:28 -22.11247 -45.39706 32931 ft 496 kts 34°
2026-04-20 23:28 -22.08409 -45.37593 33171 ft 496 kts 34°
2026-04-20 23:28 -22.05575 -45.35485 33408 ft 496 kts 34°
2026-04-20 23:28 -22.02758 -45.33344 33656 ft 495 kts 36°
2026-04-20 23:29 -22.00008 -45.31098 33869 ft 496 kts 38°
2026-04-20 23:29 -21.97330 -45.28824 34092 ft 496 kts 39°
2026-04-20 23:29 -21.94634 -45.26502 34304 ft 496 kts 39°
2026-04-20 23:29 -21.91941 -45.24184 34497 ft 496 kts 39°
2026-04-20 23:30 -21.89242 -45.21876 34661 ft 496 kts 38°
2026-04-20 23:30 -21.86523 -45.19567 34826 ft 497 kts 38°
2026-04-20 23:30 -21.83801 -45.17267 35021 ft 497 kts 38°
2026-04-20 23:30 -21.81075 -45.14971 35092 ft 498 kts 38°
2026-04-20 23:31 -21.75605 -45.10374 35095 ft 498 kts 38°
2026-04-20 23:31 -21.70176 -45.05814 35102 ft 496 kts 38°
2026-04-20 23:32 -21.64745 -45.01253 35099 ft 495 kts 38°
2026-04-20 23:32 -21.59302 -44.96687 35101 ft 494 kts 38°
2026-04-20 23:33 -21.53841 -44.92110 35096 ft 501 kts 38°
2026-04-20 23:33 -21.49244 -44.88260 35098 ft 506 kts 38°
2026-04-20 23:34 -21.43664 -44.83591 35107 ft 511 kts 38°
2026-04-20 23:34 -21.37117 -44.78118 35110 ft 513 kts 38°
2026-04-20 23:35 -21.29596 -44.71839 35085 ft 515 kts 38°
2026-04-20 23:36 -21.23945 -44.67123 35098 ft 515 kts 38°
2026-04-20 23:36 -21.18288 -44.62409 35091 ft 514 kts 38°
2026-04-20 23:37 -21.12641 -44.57710 35086 ft 513 kts 38°
2026-04-20 23:37 -21.06988 -44.53007 35092 ft 513 kts 38°
2026-04-20 23:38 -21.01395 -44.48358 35093 ft 512 kts 38°
2026-04-20 23:38 -20.95768 -44.43687 35092 ft 511 kts 38°
2026-04-20 23:39 -20.90139 -44.39026 35093 ft 511 kts 38°
2026-04-20 23:39 -20.84515 -44.34373 35071 ft 509 kts 40°
2026-04-20 23:40 -20.78920 -44.29747 35089 ft 507 kts 40°
2026-04-20 23:40 -20.73373 -44.25160 35092 ft 506 kts 40°
2026-04-20 23:41 -20.67792 -44.20550 35095 ft 506 kts 40°
2026-04-20 23:41 -20.62225 -44.15948 35097 ft 505 kts 40°
2026-04-20 23:42 -20.56708 -44.11290 35101 ft 506 kts 41°
2026-04-20 23:42 -20.51180 -44.06621 35100 ft 506 kts 41°
2026-04-20 23:43 -20.45650 -44.02048 35100 ft 507 kts 40°
2026-04-20 23:43 -20.40039 -43.97482 35099 ft 508 kts 40°
2026-04-20 23:44 -20.34417 -43.92903 35106 ft 508 kts 40°
2026-04-20 23:44 -20.28789 -43.88308 35105 ft 509 kts 40°
2026-04-20 23:45 -20.23158 -43.83711 35109 ft 510 kts 40°
2026-04-20 23:45 -20.17540 -43.79129 35107 ft 511 kts 40°
2026-04-20 23:46 -20.11896 -43.74531 35109 ft 511 kts 40°
2026-04-20 23:46 -20.07211 -43.70717 35107 ft 512 kts 40°
2026-04-20 23:47 -20.01620 -43.66171 35099 ft 512 kts 40°
2026-04-20 23:47 -19.95956 -43.61568 35101 ft 512 kts 40°
2026-04-20 23:48 -19.90280 -43.56959 35094 ft 512 kts 40°
2026-04-20 23:48 -19.84659 -43.52394 35098 ft 512 kts 40°
2026-04-20 23:49 -19.78998 -43.47790 35094 ft 512 kts 40°
2026-04-20 23:49 -19.73338 -43.43191 35098 ft 512 kts 40°
2026-04-20 23:50 -19.67668 -43.38588 35094 ft 513 kts 40°
2026-04-20 23:50 -19.61992 -43.33988 35099 ft 513 kts 40°
2026-04-20 23:51 -19.56318 -43.29394 35100 ft 513 kts 40°
2026-04-20 23:51 -19.50640 -43.24798 35095 ft 514 kts 40°
2026-04-20 23:52 -19.44958 -43.20202 35090 ft 514 kts 40°
2026-04-20 23:52 -19.39307 -43.15636 35096 ft 514 kts 40°
2026-04-20 23:53 -19.33619 -43.11044 35089 ft 514 kts 40°
2026-04-20 23:53 -19.27923 -43.06449 35086 ft 514 kts 40°
2026-04-20 23:54 -19.22235 -43.01865 35093 ft 514 kts 40°
2026-04-20 23:54 -19.16542 -42.97281 35078 ft 514 kts 39°
2026-04-20 23:55 -19.10844 -42.92698 35080 ft 514 kts 40°
2026-04-20 23:55 -19.05146 -42.88118 35085 ft 514 kts 39°
2026-04-20 23:56 -18.99455 -42.83547 35083 ft 514 kts 40°
2026-04-20 23:56 -18.93802 -42.79010 35087 ft 514 kts 40°
2026-04-20 23:57 -18.88103 -42.74445 35087 ft 514 kts 39°
2026-04-20 23:57 -18.82392 -42.69875 35080 ft 514 kts 39°
2026-04-20 23:58 -18.76694 -42.65317 35089 ft 514 kts 39°
2026-04-20 23:58 -18.70988 -42.60755 35078 ft 515 kts 39°
2026-04-20 23:59 -18.65276 -42.56195 35081 ft 515 kts 39°
2026-04-20 23:59 -18.59555 -42.51632 35085 ft 515 kts 39°
2026-04-21 00:00 -18.53878 -42.47105 35075 ft 515 kts 39°
2026-04-21 00:00 -18.48156 -42.42547 35076 ft 515 kts 39°
2026-04-21 00:01 -18.42431 -42.37989 35079 ft 516 kts 39°
2026-04-21 00:01 -18.36701 -42.33432 35061 ft 516 kts 39°
2026-04-21 00:02 -18.30967 -42.28875 35071 ft 516 kts 39°
2026-04-21 00:02 -18.25231 -42.24322 35064 ft 516 kts 39°
2026-04-21 00:03 -18.19490 -42.19773 35059 ft 516 kts 39°
2026-04-21 00:03 -18.13759 -42.15233 35065 ft 516 kts 39°
2026-04-21 00:04 -18.08047 -42.10711 35060 ft 516 kts 39°
2026-04-21 00:04 -18.02316 -42.06177 35077 ft 516 kts 39°
2026-04-21 00:05 -17.96571 -42.01637 35068 ft 516 kts 39°
2026-04-21 00:05 -17.90829 -41.97102 35074 ft 516 kts 39°
2026-04-21 00:06 -17.85091 -41.92575 35074 ft 516 kts 39°
2026-04-21 00:06 -17.79345 -41.88044 35083 ft 515 kts 39°
2026-04-21 00:07 -17.73611 -41.83527 35088 ft 516 kts 39°
2026-04-21 00:07 -17.67865 -41.79005 35086 ft 516 kts 38°
2026-04-21 00:08 -17.62161 -41.74518 35093 ft 516 kts 38°
2026-04-21 00:08 -17.56405 -41.69994 35089 ft 516 kts 38°
2026-04-21 00:09 -17.50657 -41.65481 35094 ft 516 kts 38°
2026-04-21 00:09 -17.44944 -41.60997 35094 ft 516 kts 38°
2026-04-21 00:10 -17.39158 -41.56460 35088 ft 516 kts 38°
2026-04-21 00:10 -17.33440 -41.51984 35091 ft 516 kts 38°
2026-04-21 00:11 -17.27693 -41.47487 35088 ft 515 kts 38°
2026-04-21 00:11 -17.21946 -41.42991 35093 ft 515 kts 38°
2026-04-21 00:12 -17.16212 -41.38510 35092 ft 514 kts 38°
2026-04-21 00:12 -17.10480 -41.34032 35093 ft 514 kts 38°
2026-04-21 00:13 -17.04748 -41.29559 35088 ft 513 kts 38°
2026-04-21 00:13 -16.99030 -41.25100 35091 ft 513 kts 38°
2026-04-21 00:14 -16.93307 -41.20641 35087 ft 513 kts 38°
2026-04-21 00:14 -16.87624 -41.16216 35089 ft 512 kts 38°
2026-04-21 00:15 -16.81910 -41.11771 35081 ft 512 kts 38°
2026-04-21 00:15 -16.76201 -41.07333 35086 ft 511 kts 37°
2026-04-21 00:16 -16.70499 -41.02903 35083 ft 510 kts 37°
2026-04-21 00:16 -16.64800 -40.98480 35088 ft 510 kts 37°
2026-04-21 00:17 -16.59108 -40.94065 35089 ft 509 kts 37°
2026-04-21 00:17 -16.53417 -40.89654 35076 ft 509 kts 37°
2026-04-21 00:18 -16.47728 -40.85248 35068 ft 509 kts 37°
2026-04-21 00:18 -16.42074 -40.80873 35080 ft 509 kts 37°
2026-04-21 00:19 -16.36381 -40.76470 35078 ft 508 kts 37°
2026-04-21 00:19 -16.31663 -40.72824 35077 ft 508 kts 37°
2026-04-21 00:20 -16.25967 -40.68425 35069 ft 509 kts 37°
2026-04-21 00:20 -16.19358 -40.63325 35070 ft 509 kts 37°
2026-04-21 00:21 -16.13680 -40.58947 35056 ft 506 kts 37°
2026-04-21 00:21 -16.08963 -40.55312 35064 ft 501 kts 37°
2026-04-21 00:22 -16.03358 -40.50995 34627 ft 505 kts 36°
2026-04-21 00:22 -16.00724 -40.48967 34021 ft 506 kts 36°
2026-04-21 00:22 -15.97933 -40.46819 33284 ft 507 kts 36°
2026-04-21 00:22 -15.95566 -40.44999 32642 ft 507 kts 36°
2026-04-21 00:23 -15.92720 -40.42813 31899 ft 508 kts 36°
2026-04-21 00:23 -15.89894 -40.40645 31381 ft 504 kts 36°
2026-04-21 00:23 -15.87088 -40.38493 30852 ft 500 kts 36°
2026-04-21 00:23 -15.84292 -40.36350 30321 ft 496 kts 36°
2026-04-21 00:24 -15.81520 -40.34224 29733 ft 493 kts 36°
2026-04-21 00:24 -15.78775 -40.32120 29219 ft 486 kts 36°
2026-04-21 00:24 -15.76070 -40.30046 28650 ft 482 kts 35°
2026-04-21 00:24 -15.73388 -40.27991 28140 ft 476 kts 35°
2026-04-21 00:25 -15.70737 -40.25962 27581 ft 472 kts 35°
2026-04-21 00:25 -15.68104 -40.23946 27063 ft 467 kts 35°
2026-04-21 00:25 -15.65496 -40.21950 26547 ft 463 kts 35°
2026-04-21 00:25 -15.62917 -40.19977 26041 ft 458 kts 35°
2026-04-21 00:26 -15.60458 -40.17957 25533 ft 456 kts 41°
2026-04-21 00:26 -15.58290 -40.15559 25065 ft 453 kts 50°
2026-04-21 00:26 -15.56522 -40.12896 24719 ft 446 kts 60°
2026-04-21 00:26 -15.55051 -40.10077 24269 ft 443 kts 61°
2026-04-21 00:27 -15.53614 -40.07265 23774 ft 440 kts 61°
2026-04-21 00:27 -15.52180 -40.04456 23188 ft 438 kts 61°
2026-04-21 00:27 -15.50752 -40.01674 22677 ft 435 kts 61°
2026-04-21 00:27 -15.49331 -39.98926 22169 ft 431 kts 61°
2026-04-21 00:28 -15.47915 -39.96202 21672 ft 427 kts 61°
2026-04-21 00:28 -15.46510 -39.93508 21185 ft 423 kts 61°
2026-04-21 00:28 -15.45118 -39.90844 20720 ft 419 kts 61°
2026-04-21 00:28 -15.43727 -39.88186 20237 ft 416 kts 61°
2026-04-21 00:29 -15.42373 -39.85601 19770 ft 412 kts 61°
2026-04-21 00:29 -15.41008 -39.82996 19287 ft 410 kts 61°
2026-04-21 00:29 -15.39650 -39.80406 18791 ft 408 kts 62°
2026-04-21 00:29 -15.38304 -39.77838 18316 ft 405 kts 62°
2026-04-21 00:30 -15.36958 -39.75275 17783 ft 402 kts 62°
2026-04-21 00:30 -15.35625 -39.72735 17297 ft 399 kts 62°
2026-04-21 00:30 -15.34308 -39.70222 16828 ft 396 kts 62°
2026-04-21 00:30 -15.33000 -39.67726 16357 ft 393 kts 62°
2026-04-21 00:31 -15.31700 -39.65247 15901 ft 389 kts 62°
2026-04-21 00:31 -15.30412 -39.62794 15455 ft 386 kts 62°
2026-04-21 00:31 -15.29134 -39.60362 15001 ft 383 kts 62°
2026-04-21 00:31 -15.27864 -39.57947 14562 ft 380 kts 62°
2026-04-21 00:32 -15.26601 -39.55544 14109 ft 378 kts 62°
2026-04-21 00:32 -15.25366 -39.53195 13636 ft 376 kts 62°
2026-04-21 00:32 -15.24118 -39.50821 13160 ft 372 kts 62°
2026-04-21 00:32 -15.22885 -39.48476 12700 ft 368 kts 62°
2026-04-21 00:33 -15.21666 -39.46160 12264 ft 365 kts 62°
2026-04-21 00:33 -15.20451 -39.43855 11830 ft 361 kts 62°
2026-04-21 00:33 -15.19252 -39.41580 11407 ft 358 kts 62°
2026-04-21 00:33 -15.18083 -39.39358 10986 ft 355 kts 62°
2026-04-21 00:34 -15.16917 -39.37145 10808 ft 342 kts 62°
2026-04-21 00:34 -15.15805 -39.35038 10629 ft 324 kts 63°
2026-04-21 00:34 -15.14755 -39.33047 10492 ft 307 kts 63°
2026-04-21 00:34 -15.13760 -39.31162 10356 ft 291 kts 63°
2026-04-21 00:35 -15.12809 -39.29358 10256 ft 282 kts 63°
2026-04-21 00:35 -15.11881 -39.27598 10151 ft 274 kts 63°
2026-04-21 00:35 -15.10978 -39.25887 10012 ft 268 kts 63°
2026-04-21 00:35 -15.10087 -39.24196 9734 ft 267 kts 63°
2026-04-21 00:36 -15.09206 -39.22528 9465 ft 266 kts 63°
2026-04-21 00:36 -15.08323 -39.20855 9204 ft 264 kts 63°
2026-04-21 00:36 -15.07445 -39.19190 8938 ft 263 kts 63°
2026-04-21 00:36 -15.06572 -39.17536 8685 ft 262 kts 63°
2026-04-21 00:37 -15.05699 -39.15883 8415 ft 261 kts 63°
2026-04-21 00:37 -15.04831 -39.14241 8156 ft 260 kts 63°
2026-04-21 00:37 -15.03964 -39.12600 7896 ft 259 kts 63°
2026-04-21 00:37 -15.03100 -39.10966 7637 ft 258 kts 63°
2026-04-21 00:38 -15.02241 -39.09342 7384 ft 257 kts 63°
2026-04-21 00:38 -15.01382 -39.07719 7129 ft 257 kts 63°
2026-04-21 00:38 -15.00527 -39.06103 6876 ft 256 kts 64°
2026-04-21 00:38 -14.99670 -39.04482 6630 ft 255 kts 64°
2026-04-21 00:39 -14.98819 -39.02875 6373 ft 254 kts 64°
2026-04-21 00:39 -14.97982 -39.01294 6107 ft 254 kts 64°
2026-04-21 00:39 -14.97136 -38.99696 5836 ft 253 kts 64°
2026-04-21 00:39 -14.96293 -38.98103 5582 ft 252 kts 64°
2026-04-21 00:40 -14.95450 -38.96510 5304 ft 253 kts 64°
2026-04-21 00:40 -14.94611 -38.94926 5135 ft 245 kts 64°
2026-04-21 00:40 -14.93814 -38.93424 5044 ft 232 kts 64°
2026-04-21 00:40 -14.93060 -38.92004 4942 ft 218 kts 64°
2026-04-21 00:41 -14.92344 -38.90656 4755 ft 211 kts 64°
2026-04-21 00:41 -14.91652 -38.89353 4611 ft 201 kts 65°
2026-04-21 00:41 -14.91000 -38.88124 4503 ft 190 kts 66°
2026-04-21 00:41 -14.90362 -38.86918 4319 ft 192 kts 65°
2026-04-21 00:42 -14.89652 -38.85765 4099 ft 195 kts 46°
2026-04-21 00:42 -14.88416 -38.85273 4033 ft 192 kts
2026-04-21 00:42 -14.87059 -38.85313 3789 ft 203 kts
2026-04-21 00:42 -14.85645 -38.85355 3611 ft 204 kts
2026-04-21 00:43 -14.84224 -38.85397 3393 ft 204 kts
2026-04-21 00:43 -14.82812 -38.85490 3134 ft 203 kts 346°
2026-04-21 00:43 -14.81662 -38.86245 2918 ft 195 kts 303°
2026-04-21 00:43 -14.81199 -38.87504 2752 ft 185 kts 271°
2026-04-21 00:44 -14.81177 -38.88829 2595 ft 189 kts 263°
2026-04-21 00:44 -14.81220 -38.90191 2380 ft 187 kts 263°
2026-04-21 00:44 -14.81268 -38.91512 2147 ft 179 kts 263°
2026-04-21 00:45 -14.81343 -38.93940 1703 ft 159 kts 263°
2026-04-21 00:45 -14.81374 -38.95033 1545 ft 149 kts 264°
2026-04-21 00:45 -14.81402 -38.96136 1299 ft 152 kts 263°
2026-04-21 00:45 -14.81430 -38.97199 1102 ft 145 kts 263°
2026-04-21 00:46 -14.81450 -38.98228 925 ft 141 kts 264°
2026-04-21 00:46 -14.81443 -38.99237 712 ft 140 kts 263°
2026-04-21 00:46 -14.81487 -39.00232 518 ft 137 kts 261°
2026-04-21 00:46 -14.81526 -39.01204 316 ft 133 kts 263°
2026-04-21 00:47 -14.81550 -39.02151 147 ft 131 kts 262°
2026-04-21 00:47 -14.81587 -39.03046 18 ft 106 kts 267°
2026-04-21 00:47 -14.81596 -39.03439 19 ft 23 kts 268°
2026-04-21 00:47 -14.81601 -39.03619 21 ft 25 kts 268°
2026-04-21 00:48 -14.81605 -39.03778 21 ft 20 kts 269°
2026-04-21 00:48 -14.81608 -39.03882 22 ft 10 kts 267°
2026-04-21 00:48 -14.81608 -39.03945 24 ft 6 kts 276°
2026-04-21 00:48 -14.81599 -39.03988 22 ft 6 kts 268°
2026-04-21 00:49 -14.81628 -39.04001 22 ft 4 kts 153°
2026-04-21 00:49 -14.81633 -39.03973 22 ft 4 kts 74°
2026-04-21 00:49 -14.81622 -39.03935 22 ft 7 kts 73°
2026-04-21 00:49 -14.81611 -39.03888 26 ft 7 kts 79°
2026-04-21 00:50 -14.81606 -39.03834 22 ft 10 kts 87°
2026-04-21 00:50 -14.81602 -39.03715 21 ft 20 kts 88°
2026-04-21 00:50 -14.81598 -39.03571 20 ft 20 kts 88°
2026-04-21 00:50 -14.81595 -39.03443 19 ft 15 kts 88°
2026-04-21 00:51 -14.81592 -39.03339 18 ft 14 kts 88°
2026-04-21 00:51 -14.81578 -39.03265 19 ft 10 kts 54°
2026-04-21 00:51 -14.81523 -39.03249 18 ft 7 kts
2026-04-21 00:51 -14.81487 -39.03221 19 ft 7 kts 71°
2026-04-21 00:52 -14.81483 -39.03173 18 ft 6 kts 90°
2026-04-21 00:52 -14.81469 -39.03149 19 ft 0 kts 21°
2026-04-21 00:52 -14.81469 -39.03148 19 ft 1 kts 19°
2026-04-21 00:52 -14.81466 -39.03149 18 ft 1 kts
2026-04-21 00:53 -14.81458 -39.03151 20 ft 1 kts 342°
2026-04-21 00:53 -14.81452 -39.03155 20 ft 1 kts 326°
2026-04-21 00:53 -14.81447 -39.03160 20 ft 1 kts 319°
2026-04-21 00:53 -14.81444 -39.03163 20 ft 0 kts 317°